Location: Freiburg+im+Breisgau
(48.0359°N, 7.8195°E)
Time: 22:48:08
(UTC+02:00)

ISS - Visible Passes

Search period start: 25 September 2020 00:00
Search period end: 05 October 2020 00:00
Orbit: 419 x 420 km, 51.6° (Epoch: 26 September)

Date Brightness Start Highest point End Pass type
(mag) Time Alt. Az. Time Alt. Az. Time Alt. Az.
25 Sep -2.9 20:57:50 10° WNW 21:01:05 43° N 21:02:08 32° NE visible
25 Sep -0.3 22:34:50 10° WNW 22:35:06 12° WNW 22:35:06 12° WNW visible
26 Sep -2.9 20:10:20 10° W 20:13:36 46° N 20:16:31 12° ENE visible
26 Sep -1.9 21:47:27 10° WNW 21:49:28 31° NW 21:49:28 31° NW visible
27 Sep -3.1 21:00:01 10° WNW 21:03:17 47° N 21:03:50 42° NE visible
28 Sep -2.9 20:12:32 10° WNW 20:15:48 43° N 20:18:11 16° ENE visible
28 Sep -1.6 21:49:27 10° WNW 21:51:08 27° WNW 21:51:08 27° WNW visible
29 Sep -3.7 21:02:02 10° WNW 21:05:24 67° NNE 21:05:30 66° NNE visible
30 Sep -3.4 20:14:36 10° WNW 20:17:56 54° NNE 20:19:53 22° E visible
30 Sep -1.2 21:51:29 10° WNW 21:52:51 21° W 21:52:51 21° W visible
01 Oct -3.6 21:03:59 10° WNW 21:07:15 65° SW 21:07:15 65° SW visible
02 Oct -3.8 20:16:31 10° WNW 20:19:54 88° NNE 20:21:42 26° ESE visible
02 Oct -0.8 21:53:51 10° W 21:54:40 14° W 21:54:40 14° W visible
03 Oct -3.6 19:29:03 10° WNW 19:32:26 67° NNE 19:35:47 10° ESE visible
03 Oct -2.3 21:06:05 10° W 21:09:04 29° SW 21:09:10 29° SSW visible
04 Oct -2.9 20:18:28 10° WNW 20:21:43 44° SSW 20:23:45 19° SSE visible
